Location: Orinda
(37.8771°N, 122.1797°W)
Time: 11:34:50
(UTC+00:00)

Cosmos 1356 - Pass Details

Date: 21 October 2019
Orbit: 447 x 449 km, 81.1° (Epoch: 13 November)

Event Time Altitude Azimuth Distance (km) Brightness Sun altitude
Rises 12:47:32 0° 353° (N) 2,458 7.1 -19.5°
Reaches altitude 10° 12:49:37 10° 356° (N) 1,582 6.1 -19.1°
Maximum altitude 12:53:03 70° 80° (E) 482 3.6 -18.4°
Drops below altitude 10° 12:56:29 10° 165° (SSE) 1,570 6.3 -17.7°
Sets 12:58:32 0° 168° (SSE) 2,437 7.3 -17.3°
